sat.trackr.live / text

‹ back to catalog

ONEWEB-0648

NORAD 55811 · 2023-029R

PAYLOAD ACTIVE UNKNOWN

§ Identity

Operator
Country
UK
Launch date
2023-03-09
Launch site
AFETR
Launch vehicle
Mass (kg)
RCS (m²)

Purposes: comms

External: N2YO · Heavens-Above · Gunter

§ Orbital elements

Epoch: 2026-09-20T00:44:18.924576Z

Period
109.55 min
Inclination
87.8899°
Eccentricity
0.0002116
Mean motion
13.14502773 rev/d
Perigee alt
1,204.2 km
Apogee alt
1,207.4 km
Semi-major
7,583.9 km
B*
1.6959e-4
RAAN
270.7874°
Arg perigee
65.6856°
Mean anomaly
294.4494°
Rev number
17,185

§ Raw data

ONEWEB-06481 55811U 23029R   26263.03077459  .00000076  00000+0  16959-3 0  99952 55811  87.8899 270.7874 0002116  65.6856 294.4494 13.14502773171853

JSON: /api/v1/satellites/55811 · /tle

For live sub-satellite position, see the globe view (requires WebGL).

§ Visibility from observer

Set your observer location to see the next 7 days of passes ≥ 10°. The values pass through the URL so the page stays shareable.

No JS? Fill the form by hand. The geolocation button needs JavaScript.